#timestamp,LO_Frequency,Hit,StdDev 
1591092015.8,286046999.1,N
1591092035.6,286047004.0,N
1591092055.5,286047000.3,N
1591092075.3,286046999.5,N
1591092095.2,286046996.7,N
1591092115.0,286046999.6,N
1591092115.9,286046999.6,N
1591092135.7,286046999.6,N
1591092155.6,286046997.1,N
1591092175.4,286046997.4,N
1591092195.3,286046995.0,N
1591092215.1,286046996.9,N
1591092235.9,286046997.1,N
1591092255.7,286047000.7,N
1591092275.5,286046999.3,N
1591092295.4,286046998.1,N
1591092315.2,286046998.1,N
1591092335.0,286047000.5,N
1591092335.9,286047000.5,N
1591092355.1,286046998.4,N
1591092356.0,286046998.4,N
1591092375.8,286046999.4,N
1591092395.6,286047000.7,N
1591092415.5,286046998.7,N
1591092435.3,286046998.6,N
1591092455.1,286046999.0,N
1591092475.9,286046996.8,N
1591092495.7,286046998.0,N
1591092515.6,286046993.9,Y
1591092535.4,286046992.1,P
1591092555.2,286046997.9,N
1591092575.1,286046993.5,N
1591092576.0,286046993.5,N
1591092595.8,286046996.2,N
1591092615.7,286046997.6,N
1591092635.5,286046995.1,N
1591092655.3,286046996.0,N
1591092675.2,286046994.4,N
1591092695.0,286046993.4,Y
1591092695.9,286046993.4,P
1591092715.8,286047002.4,N
1591092735.6,286046997.6,N
1591092755.4,286047000.7,N
1591092775.3,286047002.3,N
1591092795.1,286047000.3,N
1591092815.9,286047000.3,N
1591092835.7,286047002.3,N
1591092855.5,286047000.3,N
1591092875.4,286047000.4,N
1591092895.2,286047002.5,N
1591092915.0,286047002.0,N
1591092915.9,286047002.0,N
1591092935.8,286047002.1,N
1591092955.6,286047002.6,N
1591092975.5,286047000.3,N
1591092995.3,286047002.4,N
1591093015.1,286046998.6,N
1591093035.9,286046999.5,N
1591093055.7,286046999.3,N
1591093075.5,286046994.9,N
1591093095.4,286046998.0,N
1591093115.2,286046998.6,N
1591093135.1,286046996.5,N
1591093136.0,286046996.5,N
1591093155.8,286046999.2,N
1591093175.6,286046997.9,N
1591093195.5,286046997.6,N
1591093215.3,286046996.6,N
1591093235.2,286046997.9,N
1591093255.9,286046995.9,N
1591093275.7,286047006.7,N
1591093295.6,286046995.3,N
1591093315.4,286046995.3,N
1591093335.2,286046997.3,N
1591093355.1,286046996.6,N
1591093356.0,286046996.6,N
1591093375.8,286046999.4,N
1591093395.7,286047011.9,Y
1591093415.5,286047002.8,P
1591093435.3,286047000.4,N
1591093455.2,286046997.7,N
1591093475.0,286046999.2,N
1591093475.9,286046999.2,N
1591093495.8,286046999.1,N
1591093515.6,286046999.4,N
1591093535.4,286046998.9,N
1591093555.3,286046996.2,N
1591093575.1,286046994.1,Y
1591093595.9,286046994.1,P
1591093615.7,286046993.9,N
1591093635.5,286046993.5,N
1591093655.4,286046994.6,N
1591093675.2,286046993.4,Y
1591093695.1,286046999.4,P
1591093696.0,286046999.4,N
1591093715.8,286046998.7,N
1591093735.6,286047000.7,N
1591093755.5,286046998.5,N
1591093775.3,286046998.4,N
1591093795.1,286046998.3,N
1591093815.9,286046998.6,N
1591093835.7,286046999.3,N
1591093855.6,286046997.7,N
1591093875.4,286046996.6,N
1591093895.2,286046996.8,N
1591093915.1,286046996.7,N
1591093916.0,286046996.7,N
1591093935.8,286046998.3,N
1591093955.7,286046999.2,N
1591093975.5,286046997.0,N
1591093995.3,286046999.4,N
1591094015.2,286046998.3,N
1591094035.0,286046998.3,N
1591094035.9,286046998.3,N
1591094055.8,286046999.1,N
1591094075.6,286046998.8,N
1591094095.4,286046998.4,N
1591094115.3,286046999.3,N
1591094135.1,286046998.8,N
1591094155.8,286047001.2,N
1591094175.7,286046998.5,N
1591094195.5,286047000.8,N
1591094215.4,286047000.6,N
1591094235.2,286047002.8,N
1591094255.0,286047003.6,N
1591094255.9,286047003.6,N
1591094275.8,286047001.4,N
1591094295.6,286047001.0,N
1591094315.5,286047000.3,N
1591094335.3,286046998.5,N
1591094355.1,286046999.2,N
1591094375.9,286046998.1,N
1591094395.7,286046999.8,N
1591094415.5,286047001.9,N
1591094435.4,286047001.8,N
1591094455.2,286047002.0,N
1591094475.1,286047001.8,N
1591094476.0,286047001.8,N
1591094495.8,286047001.3,N
1591094515.6,286047002.6,N
1591094535.5,286047003.9,N
1591094555.3,286047003.9,N
1591094575.2,286047002.9,N
1591094595.9,286047003.9,N
1591094615.7,286047004.0,N
1591094635.6,286047002.2,N
1591094655.4,286047000.6,N
1591094675.2,286047000.3,N
1591094695.1,286047000.3,N
1591094696.0,286047000.3,N
1591094715.8,286047002.7,N
1591094735.7,286046999.9,N
1591094755.5,286047001.7,N
1591094775.3,286046999.7,N
1591094795.2,286047000.0,N
1591094815.0,286047002.8,N
1591094815.9,286047002.8,N
1591094835.8,286047002.3,N
1591094855.6,286046998.1,N
1591094875.4,286047001.1,N
1591094895.3,286047002.7,N
1591094915.1,286047002.0,N
1591094935.9,286047002.4,N
1591094955.7,286047004.0,N
1591094975.5,286047001.7,N
1591094995.4,286047002.2,N
1591095015.2,286047001.4,N
1591095035.1,286047001.9,N
1591095036.0,286047001.9,N
1591095055.8,286047002.0,N
1591095075.6,286047002.0,N
1591095095.5,286047001.4,N
1591095115.3,286047002.0,N
1591095135.1,286047002.3,N
1591095155.9,286047000.6,N
1591095175.7,286047000.7,N
1591095195.6,286047001.0,N
1591095215.4,286047000.6,N
1591095235.2,286047002.6,N
1591095255.1,286047002.5,N
1591095256.0,286047002.5,N
1591095275.8,286047002.0,N
1591095295.7,286047000.1,N
1591095315.5,286047001.2,N
1591095335.3,286046999.7,N
1591095355.2,286047002.1,N
1591095375.0,286047001.5,N
1591095375.9,286047001.5,N
1591095395.8,286047001.3,N
1591095415.6,286047003.8,Y
1591095435.4,286047001.7,P
1591095455.3,286047002.7,P
1591095475.1,286047002.6,P
1591095495.9,286047000.6,N
1591095515.7,286047001.1,N
1591095535.5,286047001.2,N
1591095555.4,286046998.2,N
1591095575.2,286046998.5,N
1591095595.0,286046998.9,N
1591095595.9,286046998.9,N
